Location: Unspecified
(35.2892°N, 0.0000°E)
Time: 23:03:44
(UTC+00:00)

IRS-1C Rocket - Visible Passes

Search period start: 04 April 2026 00:00
Search period end: 14 April 2026 00:00
Orbit: 800 x 804 km, 98.7° (Epoch: 29 March)

Date Brightness Start Highest point End Pass type
(mag) Time Alt. Az. Time Alt. Az. Time Alt. Az.
4 Apr 6.1 21:45:55 23° N 21:45:55 23° N 21:47:46 10° NNW visible
5 Apr 5.9 21:19:21 23° N 21:19:21 23° N 21:21:27 10° N visible
6 Apr 5.9 20:52:48 19° NNE 20:52:48 19° NNE 20:54:49 10° NNE visible
6 Apr 6.7 22:33:45 15° NW 22:33:45 15° NW 22:34:43 10° NW visible
7 Apr 6.2 20:26:14 13° NE 20:26:14 13° NE 20:27:34 10° NNE visible
7 Apr 6.3 22:07:12 22° NNW 22:07:12 22° NNW 22:09:00 10° NNW visible
8 Apr 5.8 21:40:38 27° N 21:40:38 27° N 21:42:56 10° N visible
9 Apr 5.7 21:14:05 26° NNE 21:14:05 26° NNE 21:16:34 10° N visible
9 Apr 7.0 22:55:02 11° NW 22:55:02 11° NW 22:55:18 10° NW visible
10 Apr 5.8 20:47:32 20° NE 20:47:32 20° NE 20:49:50 10° NNE visible
10 Apr 6.5 22:28:29 18° NW 22:28:29 18° NW 22:30:01 10° NNW visible
11 Apr 6.1 20:20:58 13° NE 20:20:58 13° NE 20:22:23 10° NE visible
11 Apr 6.0 22:01:56 26° NNW 22:01:56 26° NNW 22:04:13 10° NNW visible
12 Apr 5.6 21:35:23 31° N 21:35:23 31° N 21:38:05 10° N visible
13 Apr 5.5 21:08:49 27° NNE 21:08:49 27° NNE 21:11:39 10° N visible
13 Apr 6.8 22:49:47 14° NW 22:49:47 14° NW 22:50:42 10° NW visible
